Regional Weather Roundup
Issued by NWS Boston, MA

Current Version | Previous Version | Text Only | Print | Product List | Glossary Off
Versions: 1 2 3 4 5 6 7 8 9 10 11 12 13 14 15 16 17 18 19 20 21 22 23 24 25 26 27 28 29 30 31 32 33 34 35 36 37 38 39 40 41 42 43 44 45 46 47 48 49 50
000 ASUS41 KBOX 232210 RWRBOX REGIONAL WEATHER ROUNDUP NATIONAL WEATHER SERVICE TAUNTON MA 500 PM EST FRI FEB 23 2018 NOTE: "FAIR" INDICATES FEW OR NO CLOUDS BELOW 12,000 FEET WITH NO SIGNIFICANT WEATHER AND/OR OBSTRUCTIONS TO VISIBILITY. MAZALL-232300- EASTERN MASSACHUSETTS CITY SKY/WX TMP DP RH WIND PRES REMARKS BOSTON CLOUDY 38 35 89 SE8 30.40F BEVERLY CLOUDY 38 33 82 SE12G23 30.40F WCI 30 LAWRENCE LGT RAIN 39 32 76 SE3 30.40F BEDFORD LGT RAIN 38 33 82 SE3 30.37F BLUE HILL N/A N/A N/A N/A S8 30.36F NORWOOD CLOUDY 40 33 76 S7 30.40F MARSHFIELD CLOUDY 39 34 81 S10 30.41F PLYMOUTH CLOUDY 40 32 73 VRB3 30.40F TAUNTON LGT RAIN 38 33 82 VRB6 30.40F NEW BEDFORD LGT RAIN 38 33 82 SE14 30.40F WCI 30 $$ MAZALL-232300- CAPE COD AND THE ISLANDS CITY SKY/WX TMP DP RH WIND PRES REMARKS FALMOUTH NOT AVBL HYANNIS CLOUDY 39 33 79 SE9 30.40F CHATHAM CLOUDY 39 33 79 SE6 30.43F PROVINCETOWN CLOUDY 38 33 82 S8 30.41F NANTUCKET LGT RAIN 37 35 92 E13 30.41F WCI 29 MARTHAS VNYRD LGT RAIN 37 35 92 SE9 30.40F WCI 30 $$ MAZALL-232300- CENTRAL AND WESTERN MASSACHUSETTS CITY SKY/WX TMP DP RH WIND PRES REMARKS WORCESTER LGT RAIN 32 31 96 SE9 30.33F FOG WCI 24 FITCHBURG LGT RAIN 39 35 86 SE7 30.36F FOG ORANGE RAIN 33 33 100 S3 30.35F FOG SPRINGFIELD LGT RAIN 35 33 94 S3 30.36F FOG WESTFIELD LGT RAIN 33 33 100 S3 30.34 FOG NORTH ADAMS LGT RAIN 34 31 88 E13G24 30.28F WCI 25 PITTSFIELD LGT RAIN 33 29 85 SE17G26 30.24F FOG WCI 22 $$ RIZALL-232300- RHODE ISLAND CITY SKY/WX TMP DP RH WIND PRES REMARKS PROVIDENCE LGT RAIN 37 33 85 SE12 30.40F WCI 29 NEWPORT LGT RAIN 36 35 96 SE6 30.39F WCI 31 BLOCK ISLAND LGT RAIN 37 36 96 E15 30.37F WCI 28 SMITHFIELD LGT RAIN 35 33 92 MISG 30.37F WESTERLY LGT RAIN 37 37 100 E9 30.38F WCI 30 $$ CTZALL-232300- CONNECTICUT CITY SKY/WX TMP DP RH WIND PRES REMARKS BRADLEY INTL LGT RAIN 36 34 92 SW5 30.38F FOG HARTFORD LGT RAIN 37 35 92 SW3 30.39F FOG BRIDGEPORT LGT RAIN 37 35 92 E7 30.39F FOG WCI 32 DANBURY LGT RAIN 36 35 96 CALM 30.36F FOG GROTON LGT RAIN 38 35 89 E8 30.39F NEW HAVEN LGT RAIN 38 35 89 E9 30.37F FOG WCI 31 CHESTER NOT AVBL MERIDEN LGT RAIN 36 34 92 SE5 30.37F WILLIMANTIC LGT RAIN 37 35 92 SE3 30.38F OXFORD RAIN 34 34 100 SE7 30.35F FOG WCI 28 $$ MEZ002-015-021-024-NHZ003-005-008-011-012-014-VTZ005-008-232300- NORTHERN NEW ENGLAND CITY SKY/WX TMP DP RH WIND PRES REMARKS PORTLAND ME LGTSLEET 35 29 78 S9G17 30.41F FOG WCI 28 BANGOR ME CLOUDY 30 20 66 S13 30.41F WCI 20 CONCORD NH CLOUDY 34 28 79 SE3 30.35F MANCHESTER NH LGT RAIN 37 29 72 S8 30.35F WCI 31 NASHUA NH LGT RAIN 36 34 92 SE5 30.37F FOG PORTSMOUTH NH LGT RAIN 36 31 82 SE9 30.38 WCI 29 JAFFREY NH LGT RAIN 33 33 100 S10 30.30F FOG WCI 25 KEENE NH LGT RAIN 34 32 92 S6 30.33F WCI 29 BURLINGTON VT LGT RAIN 34 29 82 S20G31 30.17F WCI 23 MT. WASHINGTON LGTSLEET 18 18 100 SW36G56 N/A VSB 1/16WCI -3 $$ NYZ052-076-232300- EASTERN NEW YORK CITY SKY/WX TMP DP RH WIND PRES REMARKS ALBANY LGT RAIN 34 30 85 S15G25 30.26F WCI 24 NEW YORK CITY DRZL/FOG 38 36 92 NE7 30.38F VSB 1/2 $$ ANZALL-232300- MARINE OBSERVATIONS STATION/POSITION TIME TEMP WIND PRES VSBY WAVE AIR SEA DIR/SP/G HT/PER (UTC) (F) (DEG/KT/KT) (MB) (MI) (FT/S) BOSTON BUOY 2150 38 40 130/ 14/ 16 1029.0F 3/ 3 BUZZARDS BAY 2100 36 110/ 12/ 13 1031.2F NANTUCKET SOUND 2050 38 39 100/ 12/ 14 1031.5 1/ 4 MASS BAY-STELLWA 2104 37 40 1029.4F 3/ 5 ISLE OF SHOALS 2200 37 160/ 23/ 24 1028.8F S OF BLOCK IS 2143 41 N/A 4/ 5 $$ ......................KEY......................... SKY/WX - SKY CONDITION/PRESENT WEATHER TMP - TEMPERATURE IN FAHRENHEIT DWPT - DEWPOINT IN FAHRENHEIT RH - RELATIVE HUMIDITY IN PERCENT WIND - DIRECTION AND SPEED IN MPH PRES - MEAN SEA LEVEL PRESSURE IN INCHES OF HG WCI - WIND CHILL INDEX VSB - VISIBILITY IN MILES HX - HEAT INDEX TC - TEMPERATURE IN CELSIUS VRB - VARIABLE WIND DIRECTION N/A - NOT AVAILABLE

USA.gov is the U.S. government's official web portal to all federal, state and local government web resources and services.